Oshkosh, WI

3:27 AM CST on February 07, 2016 (GMT -0600)
Wittman Regional

Weather History for KOSH - October, 2013

Change the Weather History Date:

Wednesday, October 30, 2013

  Actual Average Record
Temperature  
Mean Temperature 44 °F -  
Max Temperature 55 °F 53 °F 74 °F (1950)
Min Temperature 35 °F 35 °F 19 °F (1988)
Degree Days  
Heating Degree Days 20    
Moisture  
Dew Point 44 °F    
Average Humidity 92    
Maximum Humidity 100    
Minimum Humidity 80    
Precipitation  
Precipitation 0.00 in - - ()
Sea Level Pressure  
Sea Level Pressure 30.02 in    
Wind  
Wind Speed 3 mph (SE)    
Max Wind Speed 12 mph    
Max Gust Speed -    
Visibility 2 miles    
Events Fog    
Averages and records for this station are not official NWS values.
T = Trace of Precipitation, MM = Missing Value Source: NWS Daily Summary

Daily Weather History Graph

Daily Weather History Graph

Search for Another Location

Airport or City:

Trip Planner

Search our weather history database for the weather conditions in past years. The results will help you decide how hot, cold, wet, or windy it might be!

Date:

Astronomy

Oct. 30, 2013 Rise Set
Actual Time 7:28 AM CDT 5:46 PM CDT
Civil Twilight 6:58 AM CDT 6:16 PM CDT
Nautical Twilight 6:24 AM CDT 6:50 PM CDT
Astronomical Twilight 5:50 AM CDT 7:24 PM CDT
Moon 3:08 AM CDT (10/30) 3:39 PM CDT (10/30)
Length of Visible Light 11h 18m
Length of Day
10h 18m
Waning Crescent, 17% of the Moon is Illuminated
Oct 30
Waning Crescent
Nov 3
New
Nov 9
First Quarter
Nov 17
Full
Nov 25
Last Quarter

Hourly Weather History & Observations

Time (CDT) Temp. Windchill Dew Point Humidity Pressure Visibility Wind Dir Wind Speed Gust Speed Precip Events Conditions
12:53 AM 36.0 °F - 34.0 °F 93% 30.15 in 4.0 mi Calm Calm - N/A   Clear
1:13 AM 35.6 °F - 33.8 °F 93% 30.12 in 2.5 mi Calm Calm - N/A   Clear
1:24 AM 37.4 °F - 35.6 °F 93% 30.12 in 1.2 mi Calm Calm - N/A   Clear
1:37 AM 37.4 °F - 35.6 °F 93% 30.11 in 2.5 mi Calm Calm - N/A   Clear
1:53 AM 39.9 °F - 39.0 °F 97% 30.13 in 2.5 mi Calm Calm - N/A   Clear
2:21 AM 37.4 °F - 37.4 °F 100% 30.12 in 0.8 mi Calm Calm - N/A   Mist
2:37 AM 35.6 °F - 33.8 °F 93% 30.11 in 0.2 mi Calm Calm - N/A Fog Fog
2:53 AM 37.0 °F 34.5 °F 35.1 °F 93% 30.14 in 0.2 mi NNW 3.5 mph - N/A Fog Fog
2:59 AM 35.6 °F - 35.6 °F 100% 30.12 in 0.5 mi Calm Calm - N/A Fog Fog
3:08 AM 35.6 °F - 35.6 °F 100% 30.11 in 2.0 mi Calm Calm - N/A   Overcast
3:17 AM 37.4 °F 34.9 °F 35.6 °F 93% 30.11 in 3.0 mi North 3.5 mph - N/A   Overcast
3:53 AM 39.0 °F - 37.9 °F 96% 30.12 in 3.0 mi Calm Calm - N/A   Overcast
4:53 AM 42.1 °F - 39.9 °F 92% 30.12 in 3.0 mi Calm Calm - N/A   Overcast
5:10 AM 42.8 °F 41.1 °F 41.0 °F 93% 30.10 in 2.5 mi South 3.5 mph - N/A   Overcast
5:37 AM 42.8 °F - 41.0 °F 93% 30.10 in 3.0 mi Calm Calm - N/A   Overcast
5:53 AM 43.0 °F - 41.0 °F 93% 30.12 in 3.0 mi Calm Calm - N/A   Overcast
6:19 AM 42.8 °F - 41.0 °F 93% 30.11 in 3.0 mi Calm Calm - N/A   Overcast
6:30 AM 42.8 °F - 41.0 °F 93% 30.09 in 3.0 mi Calm Calm - N/A   Overcast
6:53 AM 44.1 °F - 41.0 °F 89% 30.11 in 3.0 mi Calm Calm - N/A   Overcast
7:05 AM 42.8 °F - 41.0 °F 93% 30.09 in 3.0 mi Calm Calm - N/A   Overcast
7:46 AM 44.6 °F - 42.8 °F 93% 30.09 in 2.0 mi Calm Calm - N/A   Overcast
7:53 AM 44.1 °F - 42.1 °F 93% 30.11 in 2.0 mi Calm Calm - N/A   Overcast
8:21 AM 44.6 °F - 42.8 °F 93% 30.09 in 1.0 mi Calm Calm - N/A   Overcast
8:32 AM 44.6 °F 43.1 °F 42.8 °F 93% 30.09 in 0.5 mi ESE 3.5 mph - N/A Fog Fog
8:39 AM 44.6 °F - 42.8 °F 93% 30.09 in 0.2 mi Calm Calm - N/A Fog Fog
8:53 AM 45.0 °F - 44.1 °F 97% 30.10 in 0.2 mi Calm Calm - N/A Fog Fog
9:42 AM 46.4 °F 44.3 °F 46.4 °F 100% 30.09 in 0.2 mi SE 4.6 mph - N/A Fog Fog
9:53 AM 46.9 °F - 46.0 °F 97% 30.11 in 0.5 mi ESE 4.6 mph - N/A Fog Fog
10:21 AM 48.2 °F - 46.4 °F 93% 30.08 in 1.0 mi ESE 4.6 mph - N/A   Overcast
10:43 AM 48.2 °F - 46.4 °F 93% 30.07 in 2.0 mi Variable 4.6 mph - N/A   Overcast
10:53 AM 48.9 °F - 46.9 °F 93% 30.09 in 1.8 mi SE 8.1 mph - N/A   Overcast
11:04 AM 48.2 °F - 46.4 °F 93% 30.07 in 0.5 mi SE 8.1 mph - N/A Fog Fog
11:12 AM 48.2 °F - 46.4 °F 93% 30.06 in 0.2 mi SE 8.1 mph - N/A Fog Fog
11:19 AM 48.2 °F - 46.4 °F 93% 30.05 in 0.8 mi SE 5.8 mph - N/A   Overcast
11:27 AM 48.2 °F - 46.4 °F 93% 30.05 in 1.0 mi SSE 8.1 mph - N/A   Overcast
11:53 AM 50.0 °F - 46.9 °F 89% 30.07 in 2.0 mi SE 8.1 mph - N/A   Overcast
12:07 PM 51.8 °F - 46.4 °F 82% 30.04 in 3.0 mi SE 8.1 mph - N/A   Overcast
12:17 PM 51.8 °F - 46.4 °F 82% 30.03 in 4.0 mi SE 8.1 mph - N/A   Overcast
12:53 PM 53.1 °F - 48.0 °F 83% 30.04 in 5.0 mi SSE 8.1 mph - N/A   Haze
1:53 PM 54.0 °F - 48.0 °F 80% 30.00 in 5.0 mi SSE 9.2 mph - N/A   Haze
2:53 PM 54.0 °F - 48.9 °F 83% 29.98 in 3.0 mi SE 11.5 mph - N/A   Haze
3:53 PM 54.0 °F - 48.0 °F 80% 29.93 in 3.0 mi SE 10.4 mph - N/A   Haze
4:43 PM 53.6 °F - 48.2 °F 82% 29.88 in 3.0 mi SE 8.1 mph - N/A   Overcast
4:53 PM 53.1 °F - 48.9 °F 86% 29.89 in 3.0 mi SE 11.5 mph - N/A   Overcast
5:13 PM 53.6 °F - 48.2 °F 82% 29.85 in 2.0 mi SE 10.4 mph - N/A   Overcast
5:53 PM 53.1 °F - 48.9 °F 86% 29.86 in 2.0 mi SE 6.9 mph - N/A   Overcast
6:53 PM 54.0 °F - 50.0 °F 86% 29.89 in 2.0 mi South 6.9 mph - N/A   Overcast
7:25 PM 53.6 °F - 51.8 °F 94% 29.87 in 1.5 mi SSE 8.1 mph - N/A   Overcast
7:51 PM 53.6 °F - 51.8 °F 94% 29.84 in 1.2 mi SSE 6.9 mph - N/A   Overcast
7:53 PM 53.1 °F - 51.1 °F 93% 29.86 in 1.2 mi SSE 8.1 mph - N/A   Overcast
8:53 PM 53.1 °F - 51.1 °F 93% 29.82 in 1.0 mi SE 5.8 mph - N/A   Overcast
9:53 PM 54.0 °F - 52.0 °F 93% 29.78 in 1.5 mi SSE 5.8 mph - N/A   Overcast
10:43 PM 53.6 °F - 51.8 °F 94% 29.76 in 0.8 mi South 3.5 mph - N/A   Overcast
10:53 PM 53.1 °F - 51.1 °F 93% 29.76 in 0.5 mi Calm Calm - N/A Fog Fog
11:03 PM 53.6 °F - 51.8 °F 94% 29.76 in 0.2 mi SSW 4.6 mph - N/A Fog Fog
11:40 PM 51.8 °F - 51.8 °F 100% 29.74 in 0.5 mi South 3.5 mph - N/A Fog Fog
11:53 PM 52.0 °F - 51.1 °F 97% 29.74 in 0.2 mi SSE 4.6 mph - N/A Fog Fog